TimeCDT,TemperatureF,Dew PointF,Humidity,Sea Level PressureIn,VisibilityMPH,Wind Direction,Wind SpeedMPH,Gust SpeedMPH,PrecipitationIn,Events,Conditions,WindDirDegrees,DateUTC
12:53 AM,69.1,68.0,96,29.89,10.0,East,3.5,-,0.01,Rain,Light Rain,90,2013-04-29 05:53:00
1:48 AM,69.8,68.0,94,29.93,8.0,NW,8.1,-,0.01,,Mostly Cloudy,320,2013-04-29 06:48:00
1:53 AM,69.1,68.0,96,29.93,9.0,NW,9.2,-,0.01,,Mostly Cloudy,320,2013-04-29 06:53:00
2:06 AM,69.8,68.0,94,29.93,6.0,WNW,5.8,-,0.00,Rain,Rain,300,2013-04-29 07:06:00
2:17 AM,68.0,68.0,100,29.88,7.0,SE,11.5,-,0.03,Rain,Light Rain,130,2013-04-29 07:17:00
2:25 AM,68.0,68.0,100,29.84,7.0,SE,12.7,-,0.04,Rain,Light Rain,140,2013-04-29 07:25:00
2:37 AM,68.0,68.0,100,29.79,10.0,ESE,18.4,-,0.04,Rain,Light Rain,110,2013-04-29 07:37:00
2:53 AM,69.1,69.1,100,29.80,10.0,SE,12.7,21.9,0.04,Rain,Light Rain,130,2013-04-29 07:53:00
3:18 AM,69.8,69.8,100,29.86,10.0,NNW,8.1,-,0.00,,Mostly Cloudy,330,2013-04-29 08:18:00
3:45 AM,69.8,69.8,100,29.86,10.0,NNW,6.9,-,0.00,,Scattered Clouds,340,2013-04-29 08:45:00
3:53 AM,69.1,69.1,100,29.86,10.0,NNW,6.9,-,0.00,,Scattered Clouds,340,2013-04-29 08:53:00
4:53 AM,69.1,68.0,96,29.85,10.0,North,3.5,-,N/A,,Clear,350,2013-04-29 09:53:00
5:53 AM,69.1,66.9,93,29.86,10.0,North,3.5,-,N/A,,Partly Cloudy,10,2013-04-29 10:53:00
6:23 AM,69.8,66.2,88,29.87,10.0,North,3.5,-,N/A,,Mostly Cloudy,350,2013-04-29 11:23:00
6:53 AM,68.0,66.9,96,29.86,10.0,NNE,4.6,-,N/A,,Scattered Clouds,20,2013-04-29 11:53:00
7:53 AM,70.0,66.9,90,29.88,10.0,NNE,4.6,-,N/A,,Partly Cloudy,20,2013-04-29 12:53:00
8:53 AM,71.1,68.0,90,29.90,10.0,NNE,3.5,-,N/A,,Overcast,30,2013-04-29 13:53:00
9:53 AM,73.9,69.1,85,29.89,10.0,NNE,5.8,-,N/A,,Mostly Cloudy,30,2013-04-29 14:53:00
10:53 AM,78.1,68.0,71,29.88,10.0,NE,8.1,-,N/A,,Overcast,40,2013-04-29 15:53:00
11:53 AM,79.0,66.9,66,29.88,10.0,NE,9.2,-,N/A,,Overcast,50,2013-04-29 16:53:00
12:53 PM,81.0,68.0,65,29.86,10.0,NE,10.4,-,N/A,,Scattered Clouds,40,2013-04-29 17:53:00
1:49 PM,80.6,69.8,70,29.85,10.0,East,9.2,-,N/A,,Overcast,80,2013-04-29 18:49:00
1:53 PM,80.1,68.0,67,29.85,10.0,ENE,11.5,-,N/A,,Overcast,70,2013-04-29 18:53:00
2:53 PM,80.1,70.0,71,29.83,10.0,ENE,11.5,-,N/A,,Overcast,60,2013-04-29 19:53:00
3:35 PM,78.8,71.6,78,29.81,10.0,East,6.9,-,N/A,,Overcast,80,2013-04-29 20:35:00
3:44 PM,78.8,71.6,78,29.81,10.0,ENE,9.2,-,N/A,,Overcast,70,2013-04-29 20:44:00
3:53 PM,78.1,70.0,76,29.81,10.0,ENE,8.1,-,N/A,,Overcast,60,2013-04-29 20:53:00
4:53 PM,77.0,70.0,79,29.79,10.0,East,6.9,-,N/A,,Overcast,90,2013-04-29 21:53:00
5:53 PM,75.9,71.1,85,29.78,10.0,East,4.6,-,N/A,,Overcast,80,2013-04-29 22:53:00
6:53 PM,75.9,71.1,85,29.77,10.0,East,5.8,-,N/A,,Overcast,100,2013-04-29 23:53:00
7:53 PM,75.0,71.1,87,29.77,10.0,SE,6.9,-,N/A,,Overcast,130,2013-04-30 00:53:00
8:53 PM,73.9,70.0,87,29.78,10.0,SE,8.1,-,N/A,,Overcast,130,2013-04-30 01:53:00
9:53 PM,72.0,70.0,93,29.81,10.0,SSE,4.6,-,N/A,,Clear,160,2013-04-30 02:53:00
10:53 PM,71.1,69.1,93,29.83,10.0,South,4.6,-,N/A,,Clear,190,2013-04-30 03:53:00
11:53 PM,71.1,70.0,96,29.82,10.0,SSE,4.6,-,N/A,,Overcast,150,2013-04-30 04:53:00